Weather Service Report


166 
FPUS83 KFGF 230510
OPUFGF
PRAIRIE TO PINES WEATHER ROUNDUP
NATIONAL WEATHER SERVICE EASTERN NORTH DAKOTA/GRAND FORKS ND
1200 AM CDT FRI JUN 23 2017

 **SATELLITE DATA USED TO AUGMENT SKY COVER AT AUTOMATED STATIONS**
 *****  WEATHER ACROSS EASTERN NORTH DAKOTA  *****
  
CITY           SKY/WX    TMP DP  RH WIND       PRES   REMARKS
GRAND FORKS    FAIR      60  48  64 W13       29.69F                  
GRAND FORKS AF FAIR      60  47  62 NW16G29   29.70F                  
GRAND CITY NWS NOT AVBL                                               
BUXTON         NOT AVBL                                               
DEVILS LAKE    FAIR      59  50  72 W18       29.75F                  
FARGO          FAIR      58  41  53 W7        29.73S                  
WAHPETON ARPT  FAIR      55  45  67 W10       29.76S                  
$$

 *****  WEATHER ACROSS CENTRAL AND WESTERN NORTH DAKOTA  *****
  
CITY           SKY/WX    TMP DP  RH WIND       PRES   REMARKS
JAMESTOWN      FAIR      60  45  57 NW23      29.80R                  
BISMARCK       MOCLDY    61  46  57 W15G23    29.91R                  
MINOT          CLOUDY    59  51  75 W24G33    29.86R                  
MINOT AFB      CLOUDY    58  51  75 NW30G39   29.85R                  
GARRISON         N/A     55  52  89 NW26G32   29.90R                  
WILLISTON      CLOUDY    55  48  77 NW24G32   30.03R                  
DICKINSON      CLOUDY    54  46  74 NW26G36   30.00R                  
HETTINGER      MOCLDY    53  43  68 NW17      30.05R                  
$$

 *****  OTHER OBSERVATIONS NORTHEAST NORTH DAKOTA  *****
  
CITY           SKY/WX    TMP DP  RH WIND       PRES   REMARKS
WALHALLA       NOT AVBL                                               
LANGDON        MOCLDY    55  52  88 W13       29.71F                  
CAVALIER       FAIR      57  50  77 W15G21    29.66F                  
GRAFTON        FAIR      59  50  72 W12       29.70F                  
CANDO          NOT AVBL                                               
FORT TOTTEN      N/A     58  50  74 W8        29.95S                  
ROLLA            N/A     57  52  82 NW25G32   29.74R                  
RUGBY          NOT AVBL                                               
 ***** THE ABOVE OBSERVATIONS ARE NON NWS ARE NOT QUALITY
        CONTROLLED AND MAY MIS-REPORT RAIN FOR SNOW...
$$

 *****  OTHER OBSERVATIONS SOUTHEAST NORTH DAKOTA *****
  
CITY           SKY/WX    TMP DP  RH WIND       PRES   REMARKS
COOPERSTOWN    MOCLDY    59  46  63 W14G20    29.77S                  
VALLEY CITY    FAIR      61  43  51 NW18G29   29.80R                  
OAKES          NOT AVBL                                               
GWINNER        CLEAR     61  41  48 W9        29.79S                  
SHEYENNE NWR     N/A     55  42  62 W6        29.95S                  
BUFFALO        NOT AVBL                                               
WYNDMERE       NOT AVBL                                               
 ***** THE ABOVE OBSERVATIONS ARE NON NWS ARE NOT QUALITY
       CONTROLLED AND MAY MIS-REPORT RAIN FOR SNOW...
$$

  *****  WEATHER ACROSS NORTHERN MINNESOTA  *****     
  
CITY           SKY/WX    TMP DP  RH WIND       PRES   REMARKS
FLAG ISLAND    LGT RAIN  57  48  72 W14       29.57F                  
WARROAD        FAIR      57  48  72 W9G16     29.62F                  
ROSEAU           N/A     57  48  72 W10       29.63F                  
HALLOCK        FAIR      55  48  76 W10       29.66S                  
THF RVR FALLS  MOCLDY    59  45  59 W12       29.69S                  
HALSTAD        NOT AVBL                                               
FOSSTON        FAIR      55  43  62 W8        29.70S                  
BAUDETTE       MOCLDY    59  45  59 W10       29.61F                  
WASKISH        FAIR      63  46  55 W23G30    29.64F                  
CROOKSTON      FAIR      61  46  59 NW15G24   29.71R                  
$$
  *****  WEATHER ACROSS CENTRAL AND WEST MINNESOTA  *****     
  
CITY           SKY/WX    TMP DP  RH WIND       PRES   REMARKS
BEMIDJI        CLOUDY    59  41  50 SW8       29.68F                  
PARK RAPIDS    FAIR      53  40  61 W8        29.71F                  
WADENA         FAIR      57  45  62 SW5       29.73S                  
DETROIT LAKES  FAIR      63  39  42 W9        29.74S                  
MOORHEAD       FAIR      61  39  44 W8        29.74S                  
FERGUS FALLS   FAIR      57  45  62 W8        29.73F                  
ELBOW LAKE     FAIR      56  46  69 SW9       29.76F                  
MORRIS MN      FAIR      63  52  67 SW7       29.77F                  
STAPLES        FAIR      57  43  58 SW6       29.73F                  
WHEATON        FAIR      61  48  63 SW6       29.78F                  
$$
  *****  WEATHER ELSEWHERE ACROSS MINNESOTA  *****     
  
CITY           SKY/WX    TMP DP  RH WIND       PRES   REMARKS
DULUTH         FAIR      54  53  97 W8        29.68F                  
INTRNTL FALLS  CLOUDY    57  44  62 SW3       29.60F                  
ELY            FAIR      55  45  67 SW3       29.65F                  
CLOQUET        FAIR      61  54  77 W8        29.70S                  
BRAINERD       FAIR      58  50  75 S5        29.72F                  
HIBBING        FAIR      45  44  97 CALM      29.67F                  
ALEXANDRIA     FAIR      57  50  77 SW8       29.77F                  
SAINT CLOUD    FAIR      60  55  83 W8        29.75F                  
MINNEAPOLIS    FAIR      64  58  80 W3        29.75S                  
$$

  *****  WEATHER ACROSS SOUTH DAKOTA  *****
  
CITY           SKY/WX    TMP DP  RH WIND       PRES   REMARKS
SIOUX FALLS    FAIR      58  51  78 CALM      29.84S                  
BROOKINGS      FAIR      58  53  84 CALM      29.84F                  
WATERTOWN      FAIR      59  55  87 W8        29.83S                  
HURON          FAIR      60  53  77 W5        29.85S                  
SISSETON         N/A     61  46  57 W9        29.77F                  
ABERDEEN       FAIR      53  46  77 W8        29.84R                  
MITCHELL       FAIR      62  53  72 SW5       29.86S                  
PIERRE         FAIR      62  42  47 NW14      29.91R                  
MOBRIDGE       LGT RAIN  66  36  32 NW24G30   29.90R                  
RAPID CITY     MOCLDY    64  33  31 N32G41    30.06R                  
$$

  *****  SOME WEATHER IN NEARBY STATES *****
  
CITY           SKY/WX    TMP DP  RH WIND       PRES   REMARKS
GLASGOW MT     FAIR      54  43  66 NW13      30.14R                  
GREAT FALLS MT FAIR      49  38  65 SE5       30.29R                  
CHEYENNE WY    CLOUDY    64  51  62 NE10      30.12R                  
SCOTTSBLUFF NE CLOUDY    68  46  45 NE12      30.02R                  
OMAHA NE       LGT RAIN  74  64  71 N20G26    29.76R                  
DES MOINES IA  CLOUDY    71  69  93 NW7       29.70R                  
DAVENPORT IA   FAIR      75  71  87 S9        29.70F                  
CHICAGO IL     MOCLDY    78  69  73 S18       29.70F                  
EAU CLAIRE WI  FAIR      63  63 100 W5        29.72S FOG              
LA CROSSE WI   CLOUDY    69  69 100 CALM      29.71S                  
$$

  *****  SOME NATIONAL WEATHER *****
  
CITY           SKY/WX    TMP DP  RH WIND       PRES   REMARKS
LA GUARDIA NY  CLOUDY    82  71  69 SW9       29.88F                  
RALEIGH NC     MOCLDY    74  72  93 SW5       30.06F                  
ATLANTA GA     MOCLDY    74  72  93 S7        30.05S                  
NEW ORLEANS LA MOCLDY    80  78  94 S14G22    29.88R                  
OKLAHOMA CITY  FAIR      75  70  84 S7        29.73R                  
ALBUQUERQUE NM FAIR      87  24  10 N7        29.94R                  
SALT LAKE CITY FAIR      75  37  25 S3        30.04R                  
LOS ANGELES CA CLOUDY    64  61  90 W7        29.87R                  
BOISE ID       FAIR      69  33  26 NW10      30.09R                  
SEATTLE WA     FAIR      64  45  49 N12       30.23S                  
$$

*** WEATHER ACROSS MANITOBA...SASKATCHEWAN AND ONTARIO ***
                ***ONTARIO***
  
CITY           SKY/WX    TMP DP  RH WIND       PRES   REMARKS
GERALDTON      PTCLDY    54  48  82 SE3       29.58F THUNDER          
THUNDER BAY    MOCLDY    61  50  67 W7        29.59S                  
SIOUX LOOKOUT  LGT RAIN  55  46  71 W3        29.56S                  
TORONTO        LGT RAIN  72  68  88 W7        29.75F                  
BIG TROUT LK   CLOUDY    54  52  94 E5        29.54S                  
PICKLE LAKE    NOT AVBL                                               
DRYDEN         CLOUDY    54  48  82 SW5       29.56F                  
KENORA         LGT RAIN  54  48  82 W13G18    29.56F                  
$$      
                *** MANITOBA***
  
CITY           SKY/WX    TMP DP  RH WIND       PRES   REMARKS
BRANDON        MOCLDY    57  52  82 NW22G30   29.72R                  
DAUPHIN        CLOUDY    57  54  88 NW18G29   29.72R                  
ISLAND LAKE    PTCLDY    54  52  94 CALM      29.53S                  
PILOT MOUND      N/A     57  52  82 W10         N/A                   
THE PAS        CLOUDY    52  45  76 NW16G25   29.76R                  
THOMPSON       CLOUDY    50  48  93 N9G18     29.67R                  
WINNIPEG       MOCLDY    55  52  88 W16       29.61R                  
LYNN LAKE      CLOUDY    46  43  87 N10G20    29.85R                  
CHURCHILL      CLOUDY    41  37  87 NE22      29.83R                  
GILLAM         MOCLDY    48  45  87 NE18      29.66R                  
$$
                ***SASKATCHEWAN***
  
CITY           SKY/WX    TMP DP  RH WIND       PRES   REMARKS
ESTEVAN        CLOUDY    52  48  87 NW23G32   29.96R                  
KINDERSLEY     PTCLDY    43  39  87 W5        30.15R                  
LLOYDMINSTER   PTCLDY    48  39  71 NW7       30.14R                  
PRINCE ALBERT  NOT AVBL                                               
REGINA         MOCLDY    52  41  66 NW24G31   30.02R                  
YORKTON        CLOUDY    54  46  76 NW17G30   29.88R  

Return to Home page


Western Regional Climate Center, wrcc@dri.edu